Date String (YYYY-MM-DD hh:mm:ss) UTC,Instrument flags,Ambient pressure (hPa),Sample flow (lpm),Bypass flow (lpm),Sample temperature (°C),Ambient temperature (°C),ASC tube jacket temperature (°C),LED temperature (°C),Box temperature (°C),Sample RH (%),Span deviation,Mass concentration (μg/m³),Mass concentration (μg/m³),Mass concentration (μg/m³)
DateTimeUTC,F1_M11,P_M11,Q1_M11,Q2_M11,T1_M11,T2_M11,T3_M11,T4_M11,T5_M11,U1_M11,ZSPAN_M11,X0_M11,X2_M11,X1_M11
2022-11-18 16:00:00,,0832.1,5.00,0.00,22.5,21.1,00.0,31.4,24.2,08.7,0000.0,0007.63,0005.55,0005.17
2022-11-18 16:01:00,,0832.0,5.01,0.00,22.5,21.3,00.0,31.4,24.3,08.7,0000.0,0007.68,0005.57,0005.17
2022-11-18 16:02:00,,0832.1,5.01,0.00,22.6,22.4,00.0,31.3,24.5,08.7,0000.0,0007.94,0005.56,0005.17
2022-11-18 16:03:00,,0832.1,4.99,0.00,22.7,23.2,00.0,31.4,24.7,08.7,0000.0,0008.06,0005.58,0005.18
2022-11-18 16:04:00,,0832.1,5.00,0.00,22.8,23.0,00.0,31.4,24.8,08.6,0000.0,0008.21,0005.62,0005.19
2022-11-18 16:05:00,,0832.1,5.01,0.00,22.8,22.6,00.0,31.5,24.8,08.6,0000.0,0008.27,0005.64,0005.21
2022-11-18 16:06:00,,0832.1,5.00,0.00,22.8,22.4,00.0,31.5,24.8,08.6,0000.0,0008.79,0005.65,0005.23
2022-11-18 16:07:00,,0831.9,5.00,0.00,22.8,22.2,00.0,31.5,24.7,08.7,0000.0,0009.14,0005.66,0005.25
2022-11-18 16:08:00,,0831.9,5.01,0.00,22.8,22.0,00.0,31.6,24.7,08.7,0000.0,0009.12,0005.66,0005.26
2022-11-18 16:09:00,,0831.8,5.01,0.00,22.8,21.9,00.0,31.6,24.7,08.8,0000.0,0009.11,0005.66,0005.26
2022-11-18 16:10:00,,0831.7,4.99,0.00,22.8,21.8,00.0,31.6,24.6,08.9,0000.0,0009.23,0005.67,0005.27
2022-11-18 16:11:00,,0831.7,4.99,0.00,22.8,21.8,00.0,31.6,24.6,09.1,0000.0,0009.24,0005.68,0005.27
2022-11-18 16:12:00,,0831.7,4.99,0.00,22.8,21.7,00.0,31.6,24.6,09.2,0000.0,0009.60,0005.70,0005.28
2022-11-18 16:13:00,,0831.7,5.00,0.00,22.8,21.6,00.0,31.6,24.6,09.3,0000.0,0009.67,0005.71,0005.28
2022-11-18 16:14:00,,0831.7,5.00,0.00,22.8,21.6,00.0,31.6,24.6,09.3,0000.0,0009.41,0005.74,0005.28
2022-11-18 16:15:00,,0831.7,5.00,0.00,22.8,21.6,00.0,31.6,24.6,09.3,0000.0,0009.75,0005.72,0005.28
2022-11-18 16:16:00,,0831.8,5.00,0.00,22.8,21.6,00.0,31.6,24.6,09.3,0000.0,0009.68,0005.69,0005.28
2022-11-18 16:17:00,,0831.7,5.01,0.00,22.8,21.6,00.0,31.6,24.6,09.4,0000.0,0009.68,0005.69,0005.27
2022-11-18 16:18:00,,0831.7,5.01,0.00,22.8,21.5,00.0,31.6,24.6,09.5,0000.0,0009.08,0005.66,0005.25
2022-11-18 16:19:00,,0831.8,4.99,0.00,22.8,21.5,00.0,31.6,24.6,09.5,0000.0,0008.76,0005.64,0005.23
2022-11-18 16:20:00,,0831.8,4.98,0.00,22.8,21.5,00.0,31.6,24.6,09.4,0000.0,0008.74,0005.62,0005.20
2022-11-18 16:21:00,,0831.7,5.00,0.00,22.8,21.5,00.0,31.6,24.6,09.4,0000.0,0008.66,0005.58,0005.17
2022-11-18 16:22:00,,0831.8,5.00,0.00,22.8,21.5,00.0,31.6,24.6,09.3,0000.0,0008.74,0005.55,0005.15
2022-11-18 16:23:00,,0831.8,5.01,0.00,22.8,21.5,00.0,31.6,24.6,09.1,0000.0,0009.11,0005.52,0005.13
2022-11-18 16:24:00,,0831.7,4.99,0.00,22.8,21.5,00.0,31.6,24.6,09.0,0000.0,0008.92,0005.46,0005.10
2022-11-18 16:25:00,,0831.7,4.99,0.00,22.8,21.5,00.0,31.6,24.6,08.8,0000.0,0008.80,0005.39,0005.08
2022-11-18 16:26:00,,0831.7,5.01,0.00,22.8,21.5,00.0,31.6,24.6,08.7,0000.0,0008.32,0005.38,0005.05
2022-11-18 16:27:00,,0831.7,5.00,0.00,22.8,21.5,00.0,31.6,24.6,08.6,0000.0,0008.27,0005.36,0005.03
2022-11-18 16:28:00,,0831.7,5.00,0.00,22.8,21.5,00.0,31.6,24.6,08.5,0000.0,0008.17,0005.31,0005.01
2022-11-18 16:29:00,,0831.7,5.00,0.00,22.8,21.5,00.0,31.6,24.6,08.5,0000.0,0008.14,0005.29,0004.99
2022-11-18 16:30:00,,0831.7,5.00,0.00,22.8,21.5,00.0,31.6,24.6,08.4,0000.0,0008.61,0005.29,0004.99
2022-11-18 16:31:00,,0831.7,5.01,0.00,22.8,21.6,00.0,31.6,24.6,08.3,0000.0,0008.92,0005.31,0004.99
2022-11-18 16:32:00,,0831.7,5.01,0.00,22.8,21.6,00.0,31.6,24.6,08.2,0000.0,0009.12,0005.34,0004.99
2022-11-18 16:33:00,,0831.7,5.00,0.00,22.8,21.5,00.0,31.6,24.7,08.2,0000.0,0008.88,0005.34,0005.02
2022-11-18 16:34:00,,0831.7,4.99,0.00,22.8,21.6,00.0,31.7,24.7,08.1,0000.0,0008.17,0005.35,0005.04
2022-11-18 16:35:00,,0831.7,5.01,0.00,22.8,21.6,00.0,31.7,24.7,08.1,0000.0,0008.27,0005.39,0005.07
2022-11-18 16:36:00,,0831.7,5.01,0.00,22.8,21.6,00.0,31.7,24.7,08.1,0000.0,0008.37,0005.43,0005.09
2022-11-18 16:37:00,,0831.7,4.99,0.00,22.8,21.6,00.0,31.7,24.7,08.0,0000.0,0008.49,0005.47,0005.11
2022-11-18 16:38:00,,0831.7,4.99,0.00,22.8,21.6,00.0,31.7,24.7,07.9,0000.0,0009.20,0005.49,0005.13
2022-11-18 16:39:00,,0831.7,5.01,0.00,22.8,21.6,00.0,31.7,24.7,07.9,0000.0,0009.46,0005.55,0005.17
2022-11-18 16:40:00,,0831.7,4.99,0.00,22.8,21.6,00.0,31.7,24.8,07.9,0000.0,0009.54,0005.57,0005.20
2022-11-18 16:41:00,,0831.7,4.99,0.00,22.8,21.6,00.0,31.7,24.7,07.9,0000.0,0009.03,0005.57,0005.21
2022-11-18 16:42:00,,0831.7,5.00,0.00,22.8,21.6,00.0,31.7,24.7,07.9,0000.0,0008.78,0005.57,0005.23
2022-11-18 16:43:00,,0831.6,5.00,0.00,22.9,21.6,00.0,31.7,24.7,07.8,0000.0,0008.64,0005.56,0005.24
2022-11-18 16:44:00,,0831.6,5.01,0.00,22.9,21.6,00.0,31.7,24.7,07.8,0000.0,0008.67,0005.58,0005.23
2022-11-18 16:45:00,,0831.6,5.01,0.00,22.9,21.6,00.0,31.7,24.7,07.8,0000.0,0008.81,0005.62,0005.23
2022-11-18 16:46:00,,0831.7,4.99,0.00,22.9,21.6,00.0,31.7,24.7,07.9,0000.0,0008.88,0005.65,0005.24
2022-11-18 16:47:00,,0831.7,4.99,0.00,22.9,21.6,00.0,31.7,24.7,07.9,0000.0,0008.91,0005.67,0005.25
2022-11-18 16:48:00,,0831.7,5.01,0.00,22.9,21.6,00.0,31.7,24.7,07.8,0000.0,0008.88,0005.68,0005.27
2022-11-18 16:49:00,,0831.6,5.01,0.00,22.9,21.6,00.0,31.7,24.7,07.8,0000.0,0008.21,0005.69,0005.29
2022-11-18 16:50:00,,0831.6,4.99,0.00,22.9,21.6,00.0,31.7,24.7,07.8,0000.0,0008.03,0005.74,0005.33
2022-11-18 16:51:00,,0831.7,5.01,0.00,22.9,21.6,00.0,31.7,24.8,07.8,0000.0,0008.06,0005.79,0005.37
2022-11-18 16:52:00,,0831.7,5.01,0.00,22.9,21.6,00.0,31.7,24.8,07.8,0000.0,0008.13,0005.84,0005.40
2022-11-18 16:53:00,,0831.7,4.99,0.00,22.9,21.6,00.0,31.7,24.8,07.8,0000.0,0008.20,0005.88,0005.43
2022-11-18 16:54:00,,0831.7,4.99,0.00,22.9,21.6,00.0,31.7,24.8,07.7,0000.0,0008.24,0005.92,0005.47
2022-11-18 16:55:00,,0831.7,5.01,0.00,22.9,21.6,00.0,31.7,24.8,07.7,0000.0,0008.20,0005.91,0005.49
2022-11-18 16:56:00,,0831.7,5.01,0.00,22.9,21.6,00.0,31.7,24.8,07.7,0000.0,0008.16,0005.91,0005.51
2022-11-18 16:57:00,,0831.7,4.99,0.00,22.9,21.6,00.0,31.7,24.8,07.7,0000.0,0008.09,0005.89,0005.50
2022-11-18 16:58:00,,0831.7,4.99,0.00,22.9,21.6,00.0,31.7,24.8,07.7,0000.0,0008.09,0005.88,0005.49
2022-11-18 16:59:00,,0831.7,5.01,0.00,22.9,21.7,00.0,31.7,24.8,07.6,0000.0,0008.06,0005.87,0005.48
